| time (UTC) | temp C | wind direction | speed KPH | gust KPH | rain 1hr cm | rain 24hr cm | rain mn cm | humidity % | barometer mb |
| 20260508045904 | 7 | 198 | 0.0 | 4.8 | 0.00 | 0.46 | 0.05 | 87 | 1006.5 |
| 20260508045403 | 7 | 188 | 0.0 | 4.8 | 0.00 | 0.46 | 0.05 | 87 | 1006.5 |
| 20260508044904 | 7 | 184 | 1.6 | 8.0 | 0.00 | 0.46 | 0.05 | 87 | 1006.4 |
| 20260508044404 | 7 | 200 | 1.6 | 3.2 | 0.00 | 0.46 | 0.05 | 87 | 1006.4 |
| 20260508043904 | 7 | 186 | 1.6 | 3.2 | 0.00 | 0.46 | 0.05 | 87 | 1006.3 |
| 20260508042904 | 7 | 183 | 1.6 | 8.0 | 0.00 | 0.46 | 0.05 | 87 | 1006.3 |
| 20260508041904 | 7 | 167 | 0.0 | 9.7 | 0.03 | 0.46 | 0.05 | 87 | 1006.2 |
| 20260508041404 | 7 | 166 | 3.2 | 4.8 | 0.03 | 0.46 | 0.05 | 87 | 1006.2 |
| 20260508040905 | 7 | 161 | 1.6 | 4.8 | 0.03 | 0.46 | 0.05 | 87 | 1006.1 |
| 20260508040405 | 7 | 169 | 1.6 | 4.8 | 0.03 | 0.46 | 0.05 | 88 | 1006.2 |
| 20260508035904 | 7 | 170 | 0.0 | 4.8 | 0.03 | 0.46 | 0.05 | 88 | 1006.1 |
| 20260508034904 | 7 | 247 | 1.6 | 3.2 | 0.03 | 0.46 | 0.05 | 88 | 1005.9 |
| 20260508032903 | 7 | 243 | 1.6 | 3.2 | 0.03 | 0.46 | 0.05 | 87 | 1005.9 |
| 20260508032404 | 7 | 238 | 0.0 | 3.2 | 0.03 | 0.46 | 0.05 | 87 | 1005.9 |
| 20260508031904 | 7 | 237 | 1.6 | 4.8 | 0.00 | 0.43 | 0.03 | 87 | 1005.9 |
| 20260508031403 | 7 | 259 | 0.0 | 3.2 | 0.00 | 0.43 | 0.03 | 87 | 1005.8 |
| 20260508030904 | 7 | 259 | 0.0 | 1.6 | 0.00 | 0.43 | 0.03 | 87 | 1005.8 |
| 20260508030404 | 7 | 249 | 0.0 | 11.3 | 0.00 | 0.43 | 0.03 | 86 | 1005.7 |
| 20260508025403 | 7 | 168 | 1.6 | 9.7 | 0.03 | 0.43 | 0.03 | 87 | 1005.6 |
| 20260508024404 | 7 | 217 | 1.6 | 4.8 | 0.03 | 0.43 | 0.03 | 87 | 1005.3 |
| 20260508023404 | 7 | 175 | 3.2 | 9.7 | 0.03 | 0.43 | 0.03 | 88 | 1005.3 |
| 20260508022404 | 7 | 264 | 1.6 | 3.2 | 0.03 | 0.43 | 0.03 | 88 | 1005.3 |
| 20260508021904 | 7 | 251 | 1.6 | 4.8 | 0.03 | 0.43 | 0.03 | 88 | 1005.3 |
| 20260508021404 | 7 | 280 | 1.6 | 11.3 | 0.03 | 0.43 | 0.03 | 87 | 1005.3 |
| 20260508020904 | 7 | 176 | 3.2 | 8.0 | 0.03 | 0.43 | 0.03 | 86 | 1005.4 |
| 20260508020404 | 7 | 146 | 1.6 | 9.7 | 0.03 | 0.43 | 0.03 | 86 | 1005.3 |
| 20260508015904 | 7 | 48 | 3.2 | 12.9 | 0.00 | 0.41 | 0.00 | 85 | 1005.2 |
| 20260508014904 | 7 | 184 | 0.0 | 4.8 | 0.00 | 0.41 | 0.00 | 85 | 1005.1 |
| 20260508014404 | 7 | 174 | 3.2 | 11.3 | 0.00 | 0.41 | 0.00 | 85 | 1005.0 |
| 20260508013904 | 7 | 169 | 3.2 | 19.3 | 0.00 | 0.41 | 0.00 | 85 | 1004.9 |
| 20260508013403 | 7 | 175 | 4.8 | 9.7 | 0.00 | 0.41 | 0.00 | 86 | 1004.9 |
| 20260508012904 | 7 | 174 | 3.2 | 12.9 | 0.00 | 0.41 | 0.00 | 86 | 1004.9 |
| 20260508012403 | 7 | 233 | 1.6 | 4.8 | 0.00 | 0.41 | 0.00 | 86 | 1005.0 |
| 20260508011904 | 7 | 178 | 1.6 | 11.3 | 0.00 | 0.41 | 0.00 | 86 | 1004.9 |
| 20260508011404 | 7 | 165 | 3.2 | 12.9 | 0.00 | 0.41 | 0.00 | 86 | 1004.8 |
| 20260508010904 | 7 | 176 | 1.6 | 9.7 | 0.00 | 0.41 | 0.00 | 86 | 1004.8 |
| 20260508010404 | 7 | 219 | 1.6 | 4.8 | 0.00 | 0.41 | 0.00 | 85 | 1004.8 |
| 20260508005904 | 7 | 285 | 1.6 | 11.3 | 0.00 | 0.41 | 0.00 | 85 | 1004.7 |
| 20260508005404 | 7 | 170 | 3.2 | 12.9 | 0.00 | 0.41 | 0.00 | 85 | 1004.7 |
| 20260508004904 | 7 | 346 | 3.2 | 11.3 | 0.00 | 0.41 | 0.00 | 85 | 1004.5 |
| 20260508003903 | 7 | 280 | 3.2 | 11.3 | 0.00 | 0.41 | 0.00 | 85 | 1004.3 |
| 20260508002904 | 7 | 182 | 3.2 | 14.5 | 0.00 | 0.41 | 0.00 | 86 | 1004.2 |
| 20260508002405 | 7 | 197 | 4.8 | 11.3 | 0.00 | 0.41 | 0.00 | 86 | 1004.1 |
| 20260508000904 | 7 | 176 | 3.2 | 11.3 | 0.00 | 0.41 | 0.00 | 86 | 1004.2 |
| 20260508000405 | 7 | 178 | 3.2 | 9.7 | 0.00 | 0.41 | 0.00 | 86 | 1004.2 |
| 20260507235904 | 7 | 171 | 4.8 | 11.3 | 0.00 | 0.41 | 0.00 | 86 | 1004.1 |
| 20260507235405 | 7 | 178 | 3.2 | 11.3 | 0.03 | 0.41 | 0.00 | 86 | 1004.1 |
| 20260507234404 | 7 | 203 | 3.2 | 9.7 | 0.03 | 0.41 | 0.00 | 87 | 1004.0 |
| 20260507233904 | 7 | 173 | 3.2 | 12.9 | 0.03 | 0.41 | 0.00 | 87 | 1004.1 |
| 20260507233403 | 7 | 168 | 8.0 | 16.1 | 0.03 | 0.41 | 0.00 | 87 | 1004.1 |
| 20260507232904 | 7 | 173 | 4.8 | 9.7 | 0.03 | 0.41 | 0.00 | 87 | 1004.0 |
| 20260507231904 | 7 | 154 | 4.8 | 11.3 | 0.03 | 0.41 | 0.00 | 87 | 1004.2 |
| 20260507231404 | 7 | 221 | 4.8 | 20.9 | 0.03 | 0.41 | 0.00 | 87 | 1004.1 |
| 20260507230904 | 7 | 251 | 3.2 | 16.1 | 0.03 | 0.41 | 0.00 | 87 | 1004.1 |
| 20260507230404 | 7 | 0 | 1.6 | 14.5 | 0.03 | 0.41 | 0.00 | 86 | 1004.1 |
| 20260507225904 | 8 | 159 | 3.2 | 9.7 | 0.03 | 0.41 | 0.41 | 85 | 1004.2 |
| 20260507225404 | 8 | 294 | 3.2 | 9.7 | 0.03 | 0.41 | 0.41 | 84 | 1004.4 |
| 20260507224404 | 8 | 187 | 3.2 | 19.3 | 0.00 | 0.38 | 0.38 | 82 | 1004.0 |
| 20260507223904 | 8 | 167 | 3.2 | 12.9 | 0.00 | 0.38 | 0.38 | 82 | 1004.0 |
| 20260507223404 | 7 | 217 | 3.2 | 11.3 | 0.00 | 0.38 | 0.38 | 82 | 1004.1 |
| 20260507222904 | 7 | 169 | 1.6 | 11.3 | 0.00 | 0.38 | 0.38 | 83 | 1004.0 |
| 20260507222404 | 8 | 197 | 3.2 | 12.9 | 0.00 | 0.38 | 0.38 | 83 | 1004.1 |
| 20260507221904 | 8 | 155 | 3.2 | 12.9 | 0.00 | 0.38 | 0.38 | 84 | 1004.0 |
| 20260507220904 | 8 | 282 | 3.2 | 9.7 | 0.00 | 0.38 | 0.38 | 84 | 1004.0 |
| 20260507220404 | 8 | 163 | 3.2 | 14.5 | 0.00 | 0.38 | 0.38 | 84 | 1004.0 |
| 20260507215904 | 8 | 164 | 4.8 | 16.1 | 0.00 | 0.38 | 0.38 | 84 | 1004.0 |
| 20260507215404 | 8 | 230 | 3.2 | 12.9 | 0.00 | 0.38 | 0.38 | 84 | 1004.0 |
| 20260507214903 | 8 | 198 | 3.2 | 11.3 | 0.00 | 0.38 | 0.38 | 83 | 1004.1 |
| 20260507213905 | 8 | 191 | 4.8 | 11.3 | 0.00 | 0.38 | 0.38 | 81 | 1004.1 |
| 20260507213404 | 8 | 183 | 4.8 | 12.9 | 0.00 | 0.38 | 0.38 | 81 | 1004.0 |
| 20260507212905 | 8 | 197 | 4.8 | 12.9 | 0.00 | 0.38 | 0.38 | 82 | 1003.9 |
| 20260507211904 | 8 | 295 | 1.6 | 4.8 | 0.00 | 0.38 | 0.38 | 82 | 1004.0 |
| 20260507210904 | 8 | 175 | 8.0 | 12.9 | 0.00 | 0.38 | 0.38 | 82 | 1004.0 |
| 20260507210404 | 8 | 166 | 3.2 | 12.9 | 0.00 | 0.38 | 0.38 | 82 | 1004.1 |
| 20260507205904 | 8 | 219 | 3.2 | 12.9 | 0.00 | 0.38 | 0.38 | 83 | 1004.0 |
| 20260507205404 | 8 | 177 | 4.8 | 12.9 | 0.00 | 0.38 | 0.38 | 83 | 1004.0 |
| 20260507204905 | 8 | 195 | 8.0 | 20.9 | 0.00 | 0.38 | 0.38 | 83 | 1004.0 |
| 20260507204404 | 8 | 173 | 3.2 | 16.1 | 0.00 | 0.38 | 0.38 | 83 | 1004.0 |
| 20260507203904 | 8 | 174 | 3.2 | 14.5 | 0.00 | 0.38 | 0.38 | 83 | 1003.9 |
| 20260507203404 | 8 | 198 | 1.6 | 4.8 | 0.00 | 0.38 | 0.38 | 84 | 1003.9 |
| 20260507202904 | 8 | 161 | 3.2 | 9.7 | 0.00 | 0.38 | 0.38 | 84 | 1003.9 |
| 20260507202404 | 8 | 256 | 1.6 | 8.0 | 0.00 | 0.38 | 0.38 | 83 | 1003.9 |
| 20260507201904 | 8 | 245 | 1.6 | 4.8 | 0.00 | 0.38 | 0.38 | 82 | 1003.9 |
| 20260507201404 | 9 | 276 | 0.0 | 3.2 | 0.00 | 0.38 | 0.38 | 81 | 1003.9 |
| 20260507200904 | 9 | 165 | 3.2 | 14.5 | 0.00 | 0.38 | 0.38 | 80 | 1003.9 |
| 20260507200403 | 9 | 184 | 3.2 | 9.7 | 0.00 | 0.38 | 0.38 | 80 | 1003.7 |
| 20260507195904 | 9 | 164 | 4.8 | 19.3 | 0.00 | 0.38 | 0.38 | 79 | 1003.7 |
| 20260507195404 | 9 | 176 | 4.8 | 14.5 | 0.00 | 0.38 | 0.38 | 78 | 1003.8 |
| 20260507194903 | 9 | 173 | 6.4 | 14.5 | 0.00 | 0.38 | 0.38 | 78 | 1003.7 |
| 20260507194403 | 9 | 179 | 4.8 | 14.5 | 0.00 | 0.38 | 0.38 | 78 | 1003.8 |
| 20260507193904 | 9 | 158 | 4.8 | 14.5 | 0.00 | 0.38 | 0.38 | 79 | 1003.7 |
| 20260507193404 | 9 | 168 | 4.8 | 19.3 | 0.00 | 0.38 | 0.38 | 79 | 1003.7 |
| 20260507192904 | 9 | 179 | 4.8 | 12.9 | 0.00 | 0.38 | 0.38 | 80 | 1003.7 |
| 20260507192405 | 9 | 170 | 6.4 | 11.3 | 0.00 | 0.38 | 0.38 | 80 | 1003.7 |
| 20260507191904 | 9 | 182 | 3.2 | 16.1 | 0.00 | 0.38 | 0.38 | 79 | 1003.7 |
| 20260507190404 | 9 | 195 | 6.4 | 20.9 | 0.00 | 0.38 | 0.38 | 82 | 1003.6 |
| 20260507185904 | 9 | 144 | 4.8 | 19.3 | 0.00 | 0.38 | 0.38 | 83 | 1003.7 |
| 20260507184903 | 10 | 181 | 4.8 | 16.1 | 0.00 | 0.38 | 0.38 | 84 | 1003.6 |
| 20260507184403 | 9 | 180 | 4.8 | 24.1 | 0.00 | 0.38 | 0.38 | 83 | 1003.7 |
| 20260507182904 | 9 | 187 | 9.7 | 24.1 | 0.00 | 0.38 | 0.38 | 84 | 1003.6 |
| 20260507181904 | 9 | 168 | 4.8 | 19.3 | 0.00 | 0.38 | 0.38 | 83 | 1003.6 |
| 20260507181404 | 10 | 174 | 4.8 | 20.9 | 0.00 | 0.38 | 0.38 | 83 | 1003.6 |
| 20260507180904 | 10 | 200 | 6.4 | 20.9 | 0.00 | 0.38 | 0.38 | 82 | 1003.6 |
| 20260507175904 | 10 | 165 | 8.0 | 19.3 | 0.00 | 0.38 | 0.38 | 82 | 1003.5 |
| 20260507175404 | 10 | 180 | 8.0 | 16.1 | 0.00 | 0.38 | 0.38 | 82 | 1003.5 |
| 20260507174904 | 10 | 195 | 8.0 | 20.9 | 0.00 | 0.38 | 0.38 | 82 | 1003.5 |
| 20260507174404 | 10 | 191 | 6.4 | 12.9 | 0.00 | 0.38 | 0.38 | 82 | 1003.6 |
| 20260507173904 | 10 | 160 | 4.8 | 11.3 | 0.00 | 0.38 | 0.38 | 83 | 1003.7 |
| 20260507173404 | 10 | 175 | 6.4 | 19.3 | 0.00 | 0.38 | 0.38 | 83 | 1003.7 |
| 20260507172904 | 10 | 161 | 4.8 | 19.3 | 0.00 | 0.38 | 0.38 | 84 | 1003.6 |
| 20260507172404 | 10 | 182 | 4.8 | 14.5 | 0.00 | 0.38 | 0.38 | 84 | 1003.7 |
| 20260507171904 | 10 | 167 | 3.2 | 20.9 | 0.00 | 0.38 | 0.38 | 84 | 1003.8 |
| 20260507171404 | 10 | 171 | 6.4 | 20.9 | 0.00 | 0.38 | 0.38 | 84 | 1003.7 |
| 20260507170904 | 10 | 178 | 8.0 | 20.9 | 0.00 | 0.38 | 0.38 | 85 | 1003.8 |
| 20260507170404 | 10 | 174 | 4.8 | 19.3 | 0.00 | 0.38 | 0.38 | 85 | 1003.8 |
| 20260507165904 | 10 | 186 | 4.8 | 22.5 | 0.00 | 0.38 | 0.38 | 85 | 1003.9 |
| 20260507164904 | 10 | 151 | 4.8 | 12.9 | 0.00 | 0.38 | 0.38 | 87 | 1003.8 |
| 20260507164404 | 10 | 171 | 4.8 | 24.1 | 0.00 | 0.38 | 0.38 | 87 | 1003.9 |
| 20260507163404 | 10 | 156 | 6.4 | 16.1 | 0.03 | 0.38 | 0.38 | 87 | 1003.8 |
| 20260507162904 | 10 | 148 | 6.4 | 19.3 | 0.03 | 0.38 | 0.38 | 87 | 1003.9 |
| 20260507162404 | 10 | 202 | 4.8 | 12.9 | 0.03 | 0.38 | 0.38 | 88 | 1003.8 |
| 20260507161404 | 9 | 191 | 6.4 | 14.5 | 0.13 | 0.38 | 0.38 | 88 | 1003.9 |
| 20260507160904 | 9 | 253 | 4.8 | 25.7 | 0.36 | 0.38 | 0.38 | 89 | 1003.8 |
| 20260507160403 | 9 | 185 | 6.4 | 14.5 | 0.36 | 0.38 | 0.38 | 89 | 1004.0 |
| 20260507155404 | 9 | 133 | 4.8 | 19.3 | 0.38 | 0.38 | 0.38 | 90 | 1004.0 |
| 20260507154904 | 9 | 194 | 4.8 | 14.5 | 0.38 | 0.38 | 0.38 | 90 | 1003.9 |
| 20260507154404 | 8 | 268 | 4.8 | 33.8 | 0.38 | 0.38 | 0.38 | 90 | 1004.1 |
| 20260507153904 | 8 | 166 | 4.8 | 19.3 | 0.36 | 0.36 | 0.36 | 90 | 1004.1 |
| 20260507153404 | 8 | 156 | 6.4 | 19.3 | 0.36 | 0.36 | 0.36 | 90 | 1004.2 |
| 20260507152903 | 8 | 181 | 3.2 | 16.1 | 0.36 | 0.36 | 0.36 | 90 | 1004.3 |
| 20260507152404 | 9 | 161 | 3.2 | 12.9 | 0.36 | 0.36 | 0.36 | 90 | 1004.2 |
| 20260507151904 | 9 | 161 | 4.8 | 14.5 | 0.30 | 0.30 | 0.30 | 90 | 1004.3 |
| 20260507151406 | 1 | 168 | 0.0 | 3.2 | 0.25 | 0.25 | 0.25 | 90 | 1016.7 |